Location: Murdochville
(48.9591°N, 65.4950°W)
Time: 22:30:11
(UTC-04:00)

Envisat - Pass Details

Date: 21 April 2026
Orbit: 761 x 762 km, 98.4° (Epoch: 15 May)

Event Time Altitude Azimuth Distance (km) Brightness Sun altitude
Rises 01:50:46 0° 27° (NNE) 3,235 7.6 -26.0°
Reaches altitude 10° 01:53:45 10° 45° (NE) 2,303 6.4 -25.8°
Maximum altitude 01:57:20 19° 90° (E) 1,744 5.1 -25.5°
Enters shadow 01:59:50 14° 125° (SE) 2,030 5.1 -25.4°
